Regional Weather Roundup
Issued by NWS

Home | Current Version | Previous Version | Graphics & Text | Print | Product List | Glossary On
Versions: 1 2 3 4 5 6 7 8 9 10 11 12 13 14 15 16 17 18 19 20 21 22 23 24 25 26 27 28 29 30 31 32 33 34 35 36 37 38 39 40 41 42 43 44 45 46 47 48 49 50
000
ASUS45 KABQ 080201
RWRNM
NEW MEXICO REGIONAL WEATHER ROUNDUP
NATIONAL WEATHER SERVICE ALBUQUERQUE NM
800 PM MDT TUE JUL 07 2015

NOTE: "FAIR" MEANS FEW OR NO CLOUDS BELOW 12,000 FEET AGL WITH NO
       SIGNIFICANT WEATHER OR OBSTRUCTIONS TO VISION.

      THIS PRODUCT IS RELEASED AS TWO VERSIONS.  ONE VERSION NEAR
      THE TOP OF THE HOUR CONTAINING PRELIMINARY DATA FROM ALBUQUERQUE
      AND OTHER STATIONS.  A FINAL VERSION WITH ADDITIONAL DATA IS
      ISSUED ABOUT 10 MINUTES AFTER THE HOUR.

NMZ501-503-504-510>518-080300-
NORTHWEST PLATEAU/NORTHCENTRAL MOUNTAINS

CITY           SKY/WX    TMP DP  RH WIND       PRES   REMARKS
FARMINGTON     CLEAR     71  49  45 E9        30.04F
SANTA FE       MOCLDY    61  50  67 SE17      30.16R
TAOS           MOCLDY    59  45  58 N6        30.22R

$$
NMZ402-403-502-505>509-080300-
WESTCENTRAL MOUNTAINS/SOUTHWEST MOUNTAINS

CITY           SKY/WX    TMP DP  RH WIND       PRES   REMARKS
GALLUP         TSTM      70  44  39 W25G35    30.17R
SILVER CITY      N/A     72  54  53 NE9       30.10R

$$
NMZ407-409-411-412-080300-
SOUTHERN DESERTS

CITY           SKY/WX    TMP DP  RH WIND       PRES   REMARKS
DEMING         PTCLDY    79  55  43 NE18G24   30.00R
ALAMOGORDO     MOCLDY    73  63  68 W10       30.02R
T OR C         CLOUDY    76  54  46 SW7       30.04R

$$
NMZ519>523-080300-
CENTRAL VALLEYS/CENTRAL HIGHLANDS

CITY           SKY/WX    TMP DP  RH WIND       PRES   REMARKS
ALBUQUERQUE    MOCLDY    74  58  57 SE22      30.06R
DOUBLE EAGLE   MOCLDY    68  55  64 CALM      30.09S
MORIARTY ARPT    N/A     59  50  72 SE12      30.19R
CLINES CORNERS CLOUDY    53  50  89 E10       30.22S
BELEN          FAIR      78  55  45 SE21      30.04R
SOCORRO        NOT AVBL

$$
NMZ524>526-539-540-080300-
SOUTHCENTRAL MOUNTAINS

CITY           SKY/WX    TMP DP  RH WIND       PRES   REMARKS
RUIDOSO        NOT AVBL

$$
NMZ527>531-080300-
NORTHEAST HIGHLANDS/NORTHEAST PLAINS

CITY           SKY/WX    TMP DP  RH WIND       PRES   REMARKS
LAS VEGAS      RAIN      57  55  93 SE18      30.20F FOG
RATON          CLOUDY    61  56  83 CALM      30.21R HAZE
CLAYTON        CLOUDY    69  50  50 SE8       30.14R HAZE

$$
NMZ532>537-080300-
EASTCENTRAL PLAINS

CITY           SKY/WX    TMP DP  RH WIND       PRES   REMARKS
TUCUMCARI      MOCLDY    69  57  65 SE5       30.10R HAZE
CANNON AFB     NOT AVBL
CLOVIS AIRPORT CLOUDY    64  57  77 E5          N/A

$$
NMZ028-029-538-080300-
SOUTHEAST PLAINS

CITY           SKY/WX    TMP DP  RH WIND       PRES   REMARKS
ROSWELL        LGT RAIN  74  61  63 E5        30.08R
ARTESIA        RAIN      73  68  83 N5G13     30.10R
CARLSBAD       CLOUDY    79  63  57 N9        30.06R
HOBBS          CLEAR     68  64  88 NE12      30.10R


$$


USA.gov is the U.S. government's official web portal to all federal, state and local government web resources and services.